Regional Weather Roundup
Issued by NWS New Orleans/Baton Rouge, LA

Home | Current Version | Previous Version | Graphics & Text | Print | Product List | Glossary On
Versions: 1 2 3 4 5 6 7 8 9 10 11 12 13 14 15 16 17 18 19 20 21 22 23 24 25 26 27 28 29 30 31 32 33 34 35 36 37 38 39 40 41 42 43 44 45 46 47 48 49 50
541
ASUS44 KLIX 191008
RWRLIX
NEW ORLEANS REGIONAL WEATHER ROUNDUP
NATIONAL WEATHER SERVICE NEW ORLEANS LA
500 AM CDT SUN APR 19 2015

NOTE: "FAIR" INDICATES FEW OR NO CLOUDS BELOW 12,000 FEET WITH NO
      SIGNIFICANT WEATHER AND/OR OBSTRUCTIONS TO VISIBILITY.
      SKY/WX - SKY CONDITION AND SIGNIFICANT WEATHER.
      TMP - AIR TEMPERATURE.     DP    - DEWPOINT TEMPERATURE.
      RH  - RELATIVE HUMIDITY.   PRES  - PRESSURE.
      HI  - HEAT INDEX.          WCI   - WIND CHILL INDEX.

*  THESE STATIONS ARE NOT NWS OR FAA STATIONS AND ARE NOT UNDER
   NWS QUALITY CONTROL.

LAZ038-040-048-061>063-065>067-069-191100-
SOUTHEAST LOUISIANA

CITY           SKY/WX    TMP DP  RH WIND       PRES   REMARKS
N.O. AUDUBON     N/A     70  68  94 MISG        N/A
N.O. INTL ARPT MOCLDY    71  68  90 W5        29.78F
N.O. LAKEFRONT MOCLDY    75  70  84 W12       29.78F
SLIDELL        CLOUDY    73  72  96 VRB3      29.78F
BATON ROUGE    CLOUDY    70  68  93 SW9       29.80S
BOOTHVILLE     CLOUDY    72  71  97 NW5       29.77F
BELLE CHASSE   CLOUDY    70  68  93 CALM      29.78F
BOGALUSA*        N/A     71  67  88 SW3       29.80S
GALLIANO*      CLOUDY    70  69  96 CALM      29.79F
NEW ROADS*       N/A     69  68  95 SW8       29.80S
GONZALES*      CLOUDY    71  71 100 W3        29.80R
HAMMOND*       CLOUDY    72  68  88 W3        29.81R
HOUMA*         CLOUDY    71  70  99 CALM      29.79S
PORT FOURCHON* NOT AVBL

$$

MSZ070-080>082-191100-
SOUTHERN MISSISSIPPI

CITY           SKY/WX    TMP DP  RH WIND       PRES   REMARKS
MCCOMB         CLOUDY    69  68  96 SW8       29.79R
GULFPORT       CLOUDY    73  70  90 SW3       29.78F
BILOXI         PTCLDY    73  73 100 SW9       29.78F
PASCAGOULA     CLOUDY    73  71  93 S5        29.79S

$$

COASTAL OBSERVATIONS
LAKE AND NEARSHORE STATIONS

STATION/POSITION TIME  TEMP    WIND        PRES    WAVE
                       AIR SEA DIR/SP/G            HT/PER
                 (UTC) (F)     (DEG/KT/KT) (MB)    (FT/S)
PASCAGOULA       0900   74     180/  6/  9 1008.4
WAVELAND YACHT   0900   72 73  230/  6/  9 1008.5
GRAND ISLE       0900   73 74  260/  4/  5 1008.6
SOUTHWEST PASS   0900   73 63  190/  8/ 10 1009.1
NEW CANAL        0900   72     230/  5/  7 1009.3
SHELL BEACH      0900   72 74  200/  6/  8 1008.2

OFFSHORE STATIONS

STATION/POSITION TIME  TEMP    WIND        PRES    WAVE
                       AIR SEA DIR/SP/G            HT/PER
                 (UTC) (F)     (DEG/KT/KT) (MB)    (FT/S)
64 S DAUPHIN ISL 0950   76 74  170/ 17/ 19 1008.5    4/ 6

$$




USA.gov is the U.S. government's official web portal to all federal, state and local government web resources and services.